Probability
0 0 0 0 0 0 0 0 0 0 0 0 1 3 4 5 6 6 3 1 2 4 5 6 9 12 11 11 13 14 16 17 16 14 14 13 11 9 6 6 7 8 9 8
0 0 0 0 0 0 0 0 0 0 1 1 2 3 3 3 4 4 2 1 2 4 5 7 9 11 10 10 10 10 11 14 14 13 13 12 11 9 7 6 7 8 8 8
0 0 0 0 0 0 0 0 0 0 1 2 2 3 3 2 2 2 1 1 3 3 5 6 7 8 9 8 7 6 8 10 10 10 11 11 10 9 8 8 8 8 8 8
0 0 0 0 0 0 0 0 0 0 1 2 1 1 2 3 2 1 2 3 4 5 5 5 6 7 8 7 6 6 8 9 8 8 9 9 7 7 8 10 11 10 9 8
0 0 0 0 0 0 0 0 0 0 0 0 0 0 1 2 2 1 2 4 6 8 7 6 6 7 7 6 6 6 7 8 7 7 7 7 6 7 8 10 10 10 11 10
0 0 0 0 0 0 0 0 0 0 0 0 0 0 1 1 1 1 3 5 7 9 10 8 7 6 5 5 5 5 5 5 5 5 4 4 5 6 6 7 7 8 8 8
0 0 0 0 0 0 0 0 0 0 0 0 0 0 1 1 0 2 5 7 7 9 10 8 7 7 6 5 4 4 3 3 4 3 2 3 4 4 3 2 3 3 4 4
0 0 0 0 0 0 0 0 0 0 0 0 0 0 1 1 2 4 6 7 7 8 8 7 8 8 7 6 5 3 3 3 3 2 2 3 3 1 0 0 1 1 1 1
0 0 0 0 0 0 0 0 0 0 0 0 0 0 1 2 4 6 7 8 10 10 8 9 11 10 8 6 5 3 2 2 2 2 2 3 3 1 0 0 0 0 0 0
0 0 0 0 0 0 0 0 0 0 0 0 0 1 2 3 6 7 7 10 14 14 12 13 14 12 7 5 4 3 3 3 3 2 2 3 3 2 1 0 0 0 0 0
0 0 0 0 0 0 0 0 0 0 0 0 0 1 2 3 5 7 7 10 15 16 14 13 14 10 6 4 4 4 3 3 2 1 2 3 3 2 1 0 0 0 0 0
0 0 0 0 0 0 0 0 0 0 0 0 0 0 1 3 5 6 8 11 15 16 13 11 10 7 3 2 3 3 2 2 1 1 2 3 2 1 0 0 0 0 0 0
0 0 0 0 0 0 0 0 0 0 0 0 0 0 1 3 6 8 10 12 14 13 11 9 6 3 1 1 1 1 1 1 1 2 3 3 1 0 0 0 0 0 0 0
0 0 0 0 0 0 0 0 0 0 0 0 0 0 2 4 7 9 10 10 10 10 9 7 4 1 0 0 1 1 2 2 3 3 3 2 1 0 0 0 0 0 0 0
0 0 0 0 0 0 0 0 0 0 0 0 0 0 2 5 6 7 7 7 7 6 6 5 4 1 0 0 1 2 3 3 3 3 2 1 0 0 0 0 0 0 0 0
0 0 0 0 0 0 0 0 0 0 0 0 0 0 2 4 4 4 4 4 4 5 5 4 2 1 0 0 1 2 2 2 2 1 1 0 0 0 0 0 0 0 0 0
0 0 0 0 0 0 0 0 0 0 1 2 2 1 1 2 3 4 4 4 4 4 4 3 1 0 0 0 1 2 1 1 1 0 0 0 0 0 0 0 0 0 0 0
0 1 1 1 0 0 0 0 0 1 2 3 3 2 1 1 2 3 4 4 4 3 3 2 1 0 0 0 0 0 0 0 0 0 0 0 0 0 0 0 0 0 0 0
0 1 1 1 0 0 0 0 1 1 1 2 2 2 2 1 2 3 3 3 4 4 3 1 0 0 0 0 0 0 0 0 0 0 0 0 0 0 0 0 0 0 0 0
0 0 0 0 0 0 0 0 0 0 0 0 1 2 3 2 3 3 4 4 4 3 3 1 0 0 0 0 0 0 0 0 0 0 0 0 0 0 0 0 0 0 0 0
0 0 0 0 0 0 0 0 0 0 0 0 0 1 1 2 3 3 4 4 4 3 3 2 1 0 0 0 0 0 0 0 0 0 0 0 0 0 0 0 0 0 0 0
0 0 0 0 0 0 0 0 0 0 0 0 0 0 0 1 2 2 2 3 3 3 3 2 1 0 0 0 0 0 0 0 0 0 0 0 0 0 0 0 0 0 0 0
0 0 0 0 0 0 0 0 0 0 0 0 0 0 0 0 1 1 0 1 2 3 3 2 1 0 0 0 0 0 0 0 0 0 0 0 0 0 0 0 0 0 0 0
0 0 0 0 0 0 0 0 0 0 0 0 0 0 0 0 0 0 0 0 1 2 1 1 0 0 0 0 0 0 0 0 0 0 0 0 0 0 0 0 0 0 0 0
0 0 0 0 0 0 0 0 0 0 0 0 0 0 0 0 0 0 0 0 0 0 0 0 0 0 0 0 0 0 0 0 0 0 0 0 0 0 0 0 0 0 0 0
0 0 0 0 0 0 0 0 0 0 0 0 0 0 0 0 0 0 0 0 0 0 0 0 0 0 0 0 0 0 0 0 0 0 0 0 0 0 0 0 0 0 0 0
Wind_Speed
9 10 11 10 7 3 7 8 9 7 7 7 7 7 9 10 9 9 8 7 7 7 6 6 6 6 6 6 6 5 6 5 4 3 3 3 3 2 3 3 4 4 4 4
10 10 7 6 6 6 9 9 9 7 6 5 6 6 7 9 11 9 9 8 8 8 7 6 7 6 6 5 5 5 5 4 3 2 2 2 2 2 3 3 4 4 4 4
9 6 7 9 9 10 10 9 8 8 8 7 6 8 9 9 9 9 9 8 8 8 8 7 7 6 6 5 5 4 4 4 3 3 3 3 3 2 2 2 3 4 3 4
6 6 9 10 10 10 8 6 7 9 10 8 10 6 10 11 10 11 10 9 9 9 9 8 7 7 6 5 5 6 5 4 3 2 2 2 1 2 2 2 3 3 3 4
6 8 10 10 8 8 4 5 7 9 9 6 8 8 6 10 10 12 12 11 10 10 10 9 9 8 7 6 6 6 5 5 4 3 3 2 3 2 2 2 3 2 3 4
5 6 5 4 4 5 6 7 7 8 9 9 6 8 4 6 7 8 10 10 11 11 11 10 9 8 7 7 6 6 6 5 5 4 4 4 4 3 3 3 2 2 3 3
8 8 6 6 8 9 10 9 8 9 9 5 4 6 1 3 1 3 7 9 10 10 11 10 10 9 8 7 7 6 7 6 5 5 5 4 4 3 3 2 3 2 3 3
9 9 8 8 7 7 10 11 7 6 6 4 6 5 3 4 2 1 5 8 9 10 10 11 10 9 8 7 6 6 6 5 5 5 5 4 3 2 3 4 3 3 4 4
6 6 7 6 5 7 9 9 7 7 7 6 5 5 5 4 3 4 7 8 9 10 10 11 10 9 8 8 7 6 6 5 5 4 4 4 4 4 4 3 3 3 4 3
3 5 7 7 7 4 5 5 5 8 7 7 7 7 4 5 4 5 7 8 9 10 10 10 9 9 8 7 7 6 5 5 5 4 4 4 4 4 3 4 5 4 4 4
4 5 6 8 8 6 6 7 6 7 7 8 5 2 4 2 4 5 6 8 10 11 11 10 9 9 8 8 7 6 5 5 5 5 4 4 4 4 4 4 4 4 4 4
4 4 4 5 2 3 6 5 7 6 6 7 6 3 5 4 4 5 7 8 9 10 10 10 10 9 8 7 6 6 5 5 5 5 5 4 4 4 4 4 4 4 4 4
4 4 5 7 8 7 6 5 6 7 6 6 7 3 5 5 6 6 7 8 9 9 10 10 10 9 8 7 7 6 5 5 4 5 5 5 4 4 4 4 4 4 4 4
3 5 6 4 1 4 5 6 6 8 7 5 4 2 5 5 6 6 7 8 9 9 9 9 9 8 8 7 6 6 6 5 5 5 5 5 4 4 4 3 3 4 4 4
4 3 2 1 1 3 4 5 5 6 6 6 2 1 4 4 5 6 7 9 9 9 9 9 8 8 8 7 6 6 5 5 5 5 5 5 4 4 3 3 4 4 4 4
2 2 3 3 3 4 4 4 5 4 4 3 2 2 4 5 5 6 8 9 9 9 9 9 9 8 8 8 7 6 6 5 5 5 5 4 3 3 3 3 3 4 4 5
5 4 4 3 4 6 4 3 4 3 2 3 2 2 5 5 5 6 7 8 8 8 8 9 9 8 8 7 7 7 6 6 6 5 5 4 3 3 3 3 3 4 4 4
4 4 3 3 5 6 4 2 1 1 1 2 3 4 5 5 5 5 5 7 8 8 8 8 8 8 7 7 7 6 6 6 6 5 5 4 3 3 3 3 3 3 3 4
3 4 3 4 4 3 4 3 1 2 2 2 4 6 6 7 7 6 5 5 6 8 8 8 8 8 8 7 8 7 7 6 6 5 5 4 3 3 3 3 3 3 3 3
4 4 5 4 5 2 4 4 1 3 4 5 4 6 7 7 5 5 6 6 7 8 8 8 8 9 8 7 8 8 7 6 6 5 4 4 3 3 3 3 2 2 2 2
5 5 5 5 4 2 5 2 3 4 4 5 5 6 6 3 4 7 9 8 8 9 9 9 9 8 8 8 8 8 7 6 5 5 5 4 3 3 3 2 1 1 2 2
3 3 3 3 4 3 4 2 1 5 4 5 5 6 6 7 8 9 9 9 9 9 10 10 9 8 8 8 8 8 7 6 6 5 5 4 3 2 2 2 1 1 1 1
2 3 2 3 4 6 3 4 4 3 4 5 5 7 7 8 9 9 9 9 9 10 9 9 9 9 8 7 7 8 7 7 6 5 4 4 3 2 1 1 1 1 1 0
3 1 1 2 4 4 4 4 3 4 4 5 6 7 8 9 10 10 9 9 9 10 10 9 9 9 8 7 6 6 6 6 5 5 4 3 3 3 2 1 1 0 1 1
2 3 3 3 4 5 4 4 5 6 7 7 7 7 8 10 10 10 10 10 9 9 9 9 9 9 9 8 7 6 6 6 5 4 4 3 3 3 2 1 1 1 2 3
2 3 2 1 4 3 6 6 7 8 8 8 8 9 8 9 10 10 10 9 9 10 9 9 9 9 9 9 8 7 6 6 5 5 4 3 3 2 2 2 3 2 1 1
Wind_Direction
189 204 192 182 201 182 176 179 172 153 156 196 193 176 171 175 185 184 178 170 163 151 138 136 138 132 124 115 119 122 119 121 129 133 143 137 126 113 96 77 55 42 28 22
193 202 179 169 177 187 182 180 164 155 163 206 188 189 181 185 194 191 188 181 169 157 148 145 144 137 129 123 121 124 126 120 128 133 132 121 117 103 83 70 63 46 37 19
201 149 162 186 185 190 192 194 176 164 164 189 189 198 191 189 197 195 196 189 176 171 160 151 146 139 131 126 122 117 113 121 127 143 145 143 146 140 111 86 67 44 36 36
200 163 185 195 191 197 192 191 187 181 196 188 214 220 183 186 194 201 199 192 183 174 164 156 152 147 137 132 128 118 120 114 108 127 124 127 100 89 73 59 62 54 47 36
175 178 194 198 191 210 186 176 193 203 224 216 210 246 167 179 201 202 197 192 186 177 166 163 159 152 145 142 131 124 116 104 96 91 95 97 87 82 79 68 70 47 55 36
177 181 209 200 178 188 158 169 183 215 225 227 220 243 192 179 208 202 186 183 181 172 163 161 155 152 147 142 137 129 117 105 100 92 86 79 81 73 75 64 54 47 54 40
177 182 183 187 177 178 196 198 201 208 215 218 177 234 228 120 199 220 183 172 171 164 161 160 159 156 148 145 140 134 126 119 111 101 91 86 87 87 82 63 53 29 39 34
188 178 177 193 212 197 208 229 245 244 236 196 182 224 110 91 72 168 158 154 155 160 162 163 162 157 151 146 140 133 125 118 111 103 95 86 88 85 69 50 36 34 29 29
195 169 157 183 216 225 210 232 270 271 262 252 208 183 144 129 128 137 143 148 154 156 158 161 158 154 149 147 143 137 130 122 115 106 98 89 74 64 65 63 47 46 36 28
214 183 172 176 193 203 261 231 238 252 253 252 227 216 179 160 150 146 152 154 153 151 151 151 151 147 146 145 138 132 127 121 114 108 102 95 86 79 71 60 54 44 34 24
213 206 179 189 212 201 201 214 236 254 273 270 255 147 66 126 148 153 154 155 153 153 151 149 144 142 142 141 138 133 129 125 116 107 96 88 80 74 73 65 58 47 34 23
210 235 202 190 175 238 227 224 227 245 246 268 283 97 77 93 124 141 144 147 146 147 146 142 139 139 140 141 137 130 133 126 120 114 104 95 87 78 70 64 53 44 35 25
183 210 203 186 184 191 212 221 233 250 257 260 269 125 105 115 119 131 140 141 139 139 141 139 140 142 145 143 136 134 134 121 118 118 114 103 94 83 70 61 49 40 36 30
243 229 255 258 226 181 206 216 229 249 254 256 268 175 149 138 132 135 138 140 140 140 141 142 144 148 146 140 136 135 130 127 123 116 109 101 91 80 70 62 51 41 34 29
238 222 226 271 240 210 218 226 228 242 274 284 280 210 142 144 143 143 144 144 143 145 147 148 148 147 145 143 140 136 133 129 126 121 111 101 95 90 79 68 56 46 38 34
205 208 188 192 189 202 212 229 231 234 254 265 225 118 95 119 128 141 152 154 153 154 155 154 152 149 151 149 145 139 133 132 133 125 118 110 107 101 87 73 63 52 43 37
183 199 219 205 194 212 207 223 225 219 260 276 275 100 130 139 145 156 162 161 157 156 158 159 157 154 152 150 146 145 142 141 137 132 128 127 121 109 98 78 70 56 46 42
197 209 238 214 218 225 86 73 300 214 92 28 74 114 138 135 133 138 150 158 155 156 157 156 155 152 150 147 147 146 146 146 143 136 132 130 119 106 97 77 63 54 50 44
215 223 235 235 229 182 146 156 214 243 143 109 122 127 128 128 138 136 139 147 150 154 153 151 152 150 148 150 151 152 150 150 146 139 133 124 114 103 95 84 65 50 50 46
169 221 237 233 243 227 111 100 334 254 168 123 137 146 148 167 182 137 138 140 138 142 143 144 146 145 147 152 155 153 150 148 143 138 133 119 108 100 91 82 67 60 52 41
181 200 226 235 236 106 81 97 221 245 80 123 147 151 159 160 60 116 139 137 134 136 139 142 145 146 147 152 155 151 146 144 142 140 133 122 111 108 99 88 68 59 46 42
236 211 208 236 235 117 98 176 332 44 80 129 140 145 139 109 109 127 135 134 135 139 142 145 145 143 146 152 153 148 145 145 148 145 137 131 127 123 116 119 105 81 47 80
278 348 347 356 43 76 87 67 63 74 112 128 136 139 133 129 131 135 136 135 139 142 144 145 144 141 144 151 156 150 147 154 155 151 144 139 141 143 145 159 150 157 163 326
145 176 212 164 124 121 116 103 94 98 110 122 133 139 142 138 137 137 136 140 143 143 144 145 145 143 143 148 153 149 150 157 157 155 151 151 157 159 153 208 193 81 24 6
127 181 192 169 140 143 137 123 115 110 116 121 126 133 137 136 138 140 140 143 145 144 147 149 148 147 147 148 149 153 158 163 162 161 165 168 163 145 153 127 32 357 33 9
187 212 236 137 148 151 125 128 132 132 132 132 131 129 134 138 142 142 139 142 145 145 146 149 151 151 151 152 153 158 164 170 172 173 177 179 170 164 176 148 144 146 245 214